User: anonymous   Login
Location: Owatonna
(44.0840°N, 93.2260°W)
Time: 00:28:36
(UTC-05:00)
Language:

Cosmos 1500 Rocket - Orbit

View from above orbital plane
View from above orbital plane
View from above satellite
View from above satellite

Ground track
Ground track

The orbit data is extracted from the following two-line orbital elements,

1 14373U 83099B   16211.52945793  .00000096  00000-0  86977-5 0  9999
2 14373  82.5406 186.0661 0019426 207.4794 292.1173 14.83621788773031
Epoch (UTC): 29 July 2016 12:42:25
Eccentricity: 0.0019426
inclination: 82.5406°
perigee height: 604 km
apogee height: 631 km
right ascension of ascending node: 186.0661°
argument of perigee: 207.4794°
revolutions per day: 14.83621788
mean anomaly at epoch: 292.1173°
orbit number at epoch: 77303

The dashed part of the orbit path shows where the satellite is in the earth's shadow,  

DLR